Zurück zum Katalog

POEM 2

AktivWissenschaftVLEO
NORAD 56308·PAYLOAD·🇮🇳 India

Gestartet Apr 22, 2023 von Satish Dhawan Space Centre

Loading…

Nächste Überflüge (nächste 24 Stunden)

TLE

AktuellSource: Space-Track

Epoche: Sep 13, 2026, 18:56 UTC

1 56308U 23057A   26256.78928821  .00001837  00000-0  10025-3 0  9995
2 56308   9.8893 337.9247 0020017 113.4349 246.7968 14.95188292185545

Verfolge POEM 2 in Echtzeit mit AllMySat

Download on the App Store